Flag for U.S.A. Weather past 2 weeks in Missoula, Montana, U.S.A.

Now
78 °F

Overcast.


Feels Like: 78 °F
Forecast: 49 / 87 °F
Wind: 10 mph from Northwest

Location: Missoula International Airport

Current Time: Aug 27, 2015 at 8:47:06 PM

Latest Report: Aug 27, 2015 at 7:53 PM


Visibility: 3 mi

Pressure: 29.96 "Hg (26.81 "Hg at 971m altitude)

Humidity: 24%

Dew point: 38 °F

Location of MissoulaLocation

Historic Weather in Missoula — Graph

°F

Missoula temperature yesterday

Maximum temperature yesterday: 91 °F (at 5:53 PM)
Minimum temperature yesterday: 54 °F (at 6:53 AM)
Average temperature yesterday: 71 °F

Past Weeks' High & Low Weather Summary

 TemperatureHumidityPressure
High98 °F (Aug 13, 4:53 PM)77% (Aug 16, 4:53 AM)30.24 "Hg (Aug 16, 4:53 AM)
Low39 °F (Aug 23, 6:53 AM)10% (Aug 13, 4:53 PM)29.68 "Hg (Aug 21, 1:53 PM)
Average67 °F40%29.98 "Hg
* Reported Aug 12 6:53 PM — Aug 27 6:53 PM, Missoula, Weather by CustomWeather, © 2015

Note: Actual official high and low records may vary slightly from our data, if they occured in-between our weather recording intervals... More about our weather records

Advertising

Missoula weather history for previous 24 hours

 ConditionsComfort  
Time TempWeatherWind HumidityBarometerVisibility
6:53 PM
Thu, Aug 27
84 °FOvercast.14 mph19%29.94 "Hg3 mi
5:53 PM86 °FMostly cloudy.7 mph19%29.93 "Hg2 mi
4:53 PM86 °FMostly cloudy.3 mph21%29.93 "Hg1 mi
4:01 PM84 °FMostly cloudy.7 mph23%30.02 "Hg1 mi
3:00 PM80 °FMostly cloudy.No wind22%30.05 "Hg1 mi
2:00 PM77 °FMostly cloudy.3 mph28%30.07 "Hg3 mi
12:53 PM72 °FMostly cloudy.No wind34%30.04 "Hg3 mi
11:53 AM70 °FMostly cloudy.5 mph37%30.06 "Hg4 mi
11:03 AM68 °FOvercast.6 mph38%30.12 "Hg4 mi
10:53 AM67 °FOvercast.No wind37%30.06 "Hg4 mi
9:53 AM61 °FOvercast.5 mph52%30.07 "Hg4 mi
8:53 AM58 °FOvercast.5 mph54%30.06 "Hg3 mi
7:53 AM55 °FOvercast.3 mph53%30.03 "Hg4 mi
6:53 AM55 °FOvercast.No wind55%30.01 "Hg5 mi
5:53 AM58 °FOvercast.No wind51%29.98 "Hg5 mi
4:53 AM60 °FOvercast.3 mph47%29.96 "Hg5 mi
3:53 AM59 °FOvercast.No wind56%29.96 "Hg5 mi
2:53 AM61 °FOvercast.3 mph54%29.95 "Hg5 mi
1:53 AM71 °FPassing clouds.8 mph31%29.94 "Hg5 mi
12:53 AM69 °FOvercast.7 mph39%29.94 "Hg5 mi
11:53 PM
Wed, Aug 26
68 °FPassing clouds.5 mph38%29.95 "Hg5 mi
10:53 PM69 °FClear.3 mph31%29.94 "Hg5 mi
9:53 PM72 °FClear.5 mph37%29.94 "Hg5 mi
8:53 PM77 °FScattered clouds.9 mph26%29.91 "Hg5 mi
Weather by CustomWeather, © 2015

See weather overviewHow to use our weather pages